Temp
55 55 55 55 55 57 55 56 55 57 56 55 55 55 55 55 55 55 54 54 54 53 54 54 54 54 53 52 52 52 52 55 56 55 59 60 60 62 62 63 64 63 63
52 53 54 54 53 52 54 55 55 55 55 54 54 54 54 54 53 52 53 53 53 53 54 53 53 52 52 52 52 51 51 54 55 52 54 54 59 61 61 62 62 61 62
50 52 52 53 52 53 52 53 54 54 55 54 53 53 52 51 52 53 53 52 51 52 52 52 52 52 52 51 51 51 50 49 54 54 53 52 51 54 60 59 60 60 61
49 50 51 52 53 53 52 52 53 53 55 54 53 51 52 51 52 52 51 51 51 51 51 51 51 51 52 51 52 54 52 51 49 53 56 56 56 51 51 58 59 60 60
48 49 50 51 52 52 51 51 52 54 54 53 52 51 50 51 51 50 49 50 51 50 50 50 50 50 51 51 52 54 51 52 51 51 51 54 57 54 50 48 53 58 60
48 49 50 51 52 51 52 51 52 52 53 52 52 51 50 50 50 50 50 50 50 50 49 49 50 50 50 51 52 52 54 52 51 53 53 52 52 51 49 48 50 50 56
47 48 49 49 50 50 50 51 51 51 52 51 51 51 50 50 49 50 50 49 49 49 49 49 49 50 50 50 51 51 52 53 52 52 53 54 53 52 51 49 49 49 54
47 48 49 48 49 50 50 50 50 49 50 50 49 50 50 49 49 49 49 49 48 48 48 48 48 49 49 50 50 50 51 52 52 53 53 53 53 54 52 49 47 46 50
47 48 49 49 49 49 49 49 48 49 49 49 48 49 49 49 49 49 48 48 48 48 48 47 47 48 48 49 49 49 49 50 50 51 51 51 53 54 53 51 50 46 42
47 48 48 49 49 49 48 48 48 48 48 48 48 49 48 49 49 48 48 47 48 47 47 47 47 47 48 48 48 48 49 48 49 50 50 50 51 51 51 50 49 49 45
45 46 48 48 48 48 48 47 47 46 47 47 47 47 47 48 48 48 48 47 47 47 46 46 46 46 47 47 47 47 47 46 47 48 48 48 49 48 49 48 47 46 46
45 46 47 47 47 47 47 46 46 45 46 46 46 46 47 47 47 47 47 47 47 47 46 46 46 46 46 46 46 45 47 46 45 46 46 45 47 46 47 46 45 44 46
45 46 46 47 46 46 45 45 45 45 45 45 45 45 45 45 46 46 47 47 46 46 46 45 45 45 45 45 45 45 45 45 45 44 44 44 44 44 44 44 43 44 45
44 45 45 46 46 45 45 45 44 44 44 43 43 43 44 44 45 45 46 46 46 45 45 45 45 44 45 45 44 44 44 44 44 44 43 44 43 43 43 43 43 44 43
44 44 45 46 45 45 45 44 44 43 43 42 42 42 43 43 44 44 44 44 45 45 44 44 44 44 44 45 44 44 43 43 43 43 43 44 43 43 44 43 43 43 43
44 45 45 45 45 45 44 44 43 42 42 41 41 42 42 42 42 42 42 43 43 43 43 43 43 43 44 45 46 47 45 44 43 43 44 44 43 44 45 45 46 46 43
44 45 45 45 45 45 44 43 42 41 41 40 41 41 41 40 41 41 41 41 41 41 41 41 41 41 42 43 45 46 46 43 43 43 43 43 44 43 44 44 45 45 46
45 46 45 45 45 44 43 42 42 41 40 40 40 40 40 39 40 39 39 39 40 39 39 39 39 39 41 43 44 45 45 43 43 42 43 42 42 43 42 42 42 42 43
46 46 46 45 44 43 43 41 40 40 39 40 40 40 39 38 38 38 38 38 38 38 38 38 38 38 39 41 43 44 42 41 41 41 41 41 41 42 43 42 40 40 41
46 46 44 43 42 43 41 39 40 39 39 40 40 40 39 38 38 38 37 38 37 37 37 36 35 36 38 40 42 43 41 39 40 41 40 41 42 43 43 41 40 38 39
45 45 43 43 43 43 40 39 39 38 40 40 39 39 39 38 38 38 37 37 37 36 36 36 38 37 38 39 41 43 41 39 39 38 39 40 41 42 42 43 42 39 42
43 43 41 41 42 40 38 38 37 40 40 39 38 38 38 38 39 37 37 37 36 35 36 36 37 39 38 39 41 42 43 43 39 38 39 39 41 42 43 42 43 43 44
41 41 40 41 42 40 38 37 39 40 40 39 38 38 38 38 38 37 37 36 36 35 35 35 35 37 38 38 39 41 43 42 41 41 41 42 42 42 42 42 44 43 40
39 40 40 39 38 40 39 38 40 41 39 38 37 38 37 38 39 37 37 35 35 35 36 35 35 36 36 37 38 37 38 40 40 40 40 41 42 42 42 42 41 39 40
38 38 37 37 37 38 39 40 40 39 37 37 36 36 36 36 37 37 37 37 38 38 38 38 37 36 36 38 40 40 40 40 40 41 40 39 39 37 37 38 37 37 36
37 37 37 36 37 37 38 39 39 38 36 36 36 36 35 36 35 35 36 40 40 41 41 41 40 39 41 41 41 42 42 42 42 39 37 37 37 37 38 38 37 36 35
MSLP
1021.54 1021.55 1021.35 1021.03 1020.68 1020.43 1020.47 1020.30 1020.13 1019.92 1019.89 1019.72 1019.54 1019.31 1018.99 1018.95 1018.96 1018.93 1019.01 1019.04 1018.99 1018.65 1018.25 1018.01 1017.92 1017.79 1017.50 1017.73 1017.58 1017.05 1016.54 1015.85 1015.56 1014.99 1014.32 1014.04 1013.96 1013.85 1013.79 1013.70 1013.62 1013.76 1013.80
1021.66 1021.50 1021.10 1020.99 1020.91 1020.68 1020.42 1020.28 1020.15 1019.97 1019.78 1019.64 1019.42 1019.34 1019.20 1018.99 1018.93 1018.89 1018.81 1018.75 1018.72 1018.57 1018.21 1017.98 1017.85 1017.69 1017.53 1017.68 1017.57 1017.22 1016.71 1016.09 1015.79 1015.35 1014.85 1014.08 1013.91 1013.86 1013.93 1013.95 1013.82 1013.96 1013.89
1021.70 1021.36 1021.13 1021.08 1021.08 1020.67 1020.43 1020.45 1020.16 1019.85 1019.53 1019.41 1019.34 1019.26 1019.18 1018.99 1018.81 1018.65 1018.68 1018.65 1018.57 1018.34 1018.12 1017.96 1017.80 1017.62 1017.58 1017.55 1017.45 1017.21 1016.94 1016.48 1015.90 1015.70 1015.37 1014.57 1014.29 1014.19 1014.05 1014.02 1014.09 1014.11 1013.96
1021.76 1021.55 1021.53 1021.29 1021.08 1020.69 1020.61 1020.61 1020.10 1019.81 1019.42 1019.21 1019.03 1019.02 1018.96 1018.74 1018.53 1018.58 1018.51 1018.44 1018.39 1018.23 1017.97 1017.78 1017.67 1017.57 1017.52 1017.40 1017.29 1017.08 1016.92 1016.80 1016.31 1015.82 1015.53 1015.27 1015.01 1014.77 1014.24 1013.98 1014.04 1014.06 1013.89
1021.76 1021.75 1021.69 1021.26 1020.93 1020.63 1020.57 1020.49 1019.99 1019.56 1019.16 1018.91 1018.85 1018.76 1018.59 1018.39 1018.34 1018.45 1018.33 1018.20 1018.09 1017.97 1017.84 1017.72 1017.59 1017.45 1017.42 1017.34 1017.22 1016.84 1016.82 1016.70 1016.48 1016.17 1015.85 1015.41 1014.97 1015.12 1015.07 1014.45 1014.04 1013.89 1013.83
1021.74 1021.79 1021.51 1021.20 1020.86 1020.65 1020.57 1020.35 1019.84 1019.45 1019.05 1018.85 1018.62 1018.47 1018.18 1017.89 1017.89 1017.82 1017.96 1017.83 1017.83 1017.82 1017.77 1017.59 1017.42 1017.29 1017.19 1017.11 1017.01 1016.86 1016.56 1016.51 1016.34 1016.15 1015.91 1015.57 1015.15 1015.09 1015.25 1014.94 1014.49 1014.25 1013.70
1021.67 1021.54 1021.31 1020.98 1020.80 1020.66 1020.45 1020.11 1019.79 1019.34 1019.09 1018.88 1018.53 1018.27 1018.01 1017.76 1017.45 1017.34 1017.34 1017.49 1017.55 1017.51 1017.46 1017.49 1017.36 1017.19 1017.06 1016.96 1016.81 1016.67 1016.50 1016.21 1016.06 1015.85 1015.57 1015.37 1015.22 1015.29 1015.23 1015.13 1014.68 1014.22 1013.68
1021.61 1021.41 1021.25 1021.09 1020.87 1020.75 1020.46 1020.13 1019.85 1019.46 1019.16 1018.84 1018.44 1018.07 1017.74 1017.52 1017.29 1017.15 1017.16 1017.18 1017.28 1017.39 1017.48 1017.49 1017.38 1017.18 1017.04 1016.89 1016.75 1016.61 1016.45 1016.24 1015.95 1015.68 1015.49 1015.33 1015.22 1015.16 1015.04 1015.03 1014.87 1014.17 1013.58
1021.42 1021.24 1021.15 1021.09 1020.98 1020.78 1020.48 1020.22 1019.91 1019.53 1019.15 1018.82 1018.41 1017.93 1017.55 1017.25 1017.01 1016.95 1016.96 1016.92 1016.93 1016.94 1016.95 1017.06 1017.09 1017.01 1016.94 1016.85 1016.73 1016.54 1016.37 1016.23 1016.06 1015.85 1015.68 1015.45 1015.17 1015.10 1015.10 1015.09 1015.01 1014.75 1014.06
1021.30 1021.29 1021.28 1021.02 1020.75 1020.57 1020.32 1020.07 1019.84 1019.49 1019.19 1018.80 1018.37 1017.87 1017.47 1017.09 1016.80 1016.65 1016.64 1016.70 1016.67 1016.60 1016.51 1016.47 1016.45 1016.42 1016.40 1016.33 1016.29 1016.24 1016.19 1016.12 1015.93 1015.75 1015.58 1015.37 1015.30 1015.21 1015.15 1015.23 1015.24 1015.10 1014.85
1021.38 1021.31 1021.11 1020.74 1020.55 1020.36 1020.21 1019.97 1019.71 1019.45 1019.08 1018.75 1018.36 1017.86 1017.31 1016.87 1016.57 1016.44 1016.37 1016.38 1016.35 1016.26 1016.25 1016.29 1016.35 1016.26 1016.03 1015.94 1015.96 1015.86 1015.76 1015.66 1015.50 1015.43 1015.37 1015.21 1015.20 1015.08 1015.01 1015.08 1015.18 1015.12 1014.97
1021.08 1020.93 1020.71 1020.54 1020.38 1020.30 1020.17 1020.02 1019.76 1019.47 1019.15 1018.86 1018.47 1017.99 1017.56 1017.15 1016.79 1016.53 1016.34 1016.24 1016.14 1016.12 1016.10 1016.04 1015.97 1015.93 1015.89 1015.86 1015.81 1015.70 1015.57 1015.46 1015.31 1015.22 1015.17 1014.92 1014.84 1014.72 1014.72 1014.75 1014.72 1014.71 1014.62
1020.58 1020.49 1020.45 1020.34 1020.25 1020.15 1020.04 1019.89 1019.70 1019.46 1019.20 1018.83 1018.50 1018.05 1017.74 1017.38 1017.03 1016.74 1016.51 1016.31 1016.12 1015.93 1015.76 1015.65 1015.53 1015.43 1015.45 1015.46 1015.39 1015.32 1015.19 1015.14 1015.01 1014.87 1014.79 1014.68 1014.73 1014.59 1014.49 1014.47 1014.32 1014.19 1014.06
1019.96 1019.84 1019.92 1019.85 1019.78 1019.66 1019.64 1019.54 1019.37 1019.33 1019.17 1018.85 1018.48 1018.10 1017.83 1017.52 1017.20 1016.82 1016.51 1016.34 1016.16 1015.93 1015.67 1015.45 1015.22 1015.02 1014.87 1014.73 1014.64 1014.62 1014.50 1014.35 1014.29 1014.34 1014.29 1014.18 1014.13 1014.02 1013.96 1013.92 1013.86 1013.73 1013.52
1019.49 1019.31 1019.29 1019.24 1019.18 1019.16 1019.10 1019.03 1018.99 1018.90 1018.76 1018.53 1018.37 1018.22 1018.01 1017.69 1017.33 1016.94 1016.61 1016.24 1015.93 1015.69 1015.59 1015.43 1015.21 1014.99 1014.76 1014.38 1014.14 1014.03 1013.96 1013.93 1013.78 1013.69 1013.65 1013.63 1013.51 1013.44 1013.45 1013.38 1013.13 1013.08 1012.94
1018.94 1018.78 1018.76 1018.79 1018.79 1018.78 1018.71 1018.70 1018.64 1018.55 1018.56 1018.42 1018.33 1018.21 1017.96 1017.67 1017.31 1016.91 1016.61 1016.23 1015.93 1015.59 1015.32 1014.98 1014.82 1014.62 1014.30 1013.91 1013.63 1013.38 1013.21 1013.23 1013.28 1013.14 1013.00 1012.92 1012.92 1012.79 1012.79 1012.69 1012.55 1012.49 1012.21
1018.45 1018.28 1018.18 1018.16 1018.15 1018.22 1018.25 1018.40 1018.38 1018.37 1018.22 1018.03 1017.89 1017.80 1017.76 1017.47 1017.25 1016.95 1016.61 1016.22 1015.82 1015.63 1015.39 1015.09 1014.81 1014.40 1013.97 1013.53 1013.27 1013.01 1012.69 1012.52 1012.37 1012.30 1012.23 1012.15 1012.11 1012.14 1012.08 1011.88 1011.73 1011.65 1011.51
1018.00 1017.91 1017.85 1017.79 1017.87 1017.91 1017.96 1018.12 1018.12 1017.99 1017.93 1017.79 1017.62 1017.47 1017.38 1017.25 1017.12 1016.89 1016.57 1016.31 1015.96 1015.66 1015.41 1015.03 1014.65 1014.44 1013.87 1013.46 1013.00 1012.65 1012.34 1012.15 1011.96 1011.78 1011.58 1011.44 1011.28 1011.30 1011.28 1011.25 1011.05 1010.78 1010.64
1017.46 1017.31 1017.13 1017.18 1017.37 1017.49 1017.47 1017.67 1017.72 1017.67 1017.66 1017.48 1017.29 1017.05 1016.97 1016.82 1016.73 1016.61 1016.47 1016.26 1015.92 1015.58 1015.15 1014.84 1014.51 1014.08 1013.64 1013.17 1012.62 1012.46 1012.33 1011.95 1011.59 1011.38 1011.32 1011.13 1010.76 1010.60 1010.71 1010.53 1010.14 1009.96 1009.58
1016.85 1016.83 1016.71 1016.83 1016.96 1016.87 1017.09 1017.34 1017.23 1017.25 1017.20 1017.04 1016.84 1016.80 1016.77 1016.74 1016.54 1016.29 1016.03 1015.82 1015.66 1015.31 1015.01 1014.51 1014.20 1013.87 1013.18 1012.80 1012.51 1011.92 1011.61 1011.29 1011.06 1010.88 1010.57 1010.55 1010.35 1009.99 1009.86 1009.79 1009.48 1009.18 1008.88
1016.52 1016.49 1016.56 1016.55 1016.27 1016.42 1016.68 1016.91 1016.81 1016.75 1016.57 1016.50 1016.46 1016.43 1016.28 1016.14 1015.95 1015.72 1015.49 1015.24 1015.07 1014.85 1014.45 1014.01 1013.50 1013.22 1012.92 1012.29 1011.84 1011.55 1011.30 1010.92 1010.51 1010.25 1009.96 1009.73 1009.57 1009.36 1009.19 1008.96 1008.61 1008.36 1008.38
1016.29 1016.28 1016.32 1016.19 1015.96 1016.12 1016.29 1016.49 1016.44 1015.96 1016.06 1016.00 1015.89 1015.83 1015.70 1015.52 1015.28 1015.16 1014.85 1014.75 1014.60 1014.33 1013.78 1013.33 1012.79 1012.17 1012.07 1011.69 1011.01 1010.83 1010.55 1010.25 1009.91 1009.52 1009.29 1009.10 1008.85 1008.43 1008.18 1008.05 1007.83 1007.54 1007.33
1016.42 1016.14 1016.08 1015.99 1015.86 1015.94 1016.02 1016.05 1015.64 1015.77 1015.67 1015.40 1015.11 1015.04 1015.08 1014.71 1014.61 1014.60 1014.42 1014.23 1014.03 1013.88 1013.28 1012.97 1012.28 1011.49 1011.00 1010.82 1010.37 1009.96 1009.68 1009.38 1009.01 1008.77 1008.42 1008.10 1007.78 1007.42 1007.11 1006.94 1006.60 1006.71 1006.60
1016.35 1016.20 1016.11 1015.99 1015.91 1015.75 1015.69 1015.64 1015.57 1015.48 1015.36 1015.23 1015.00 1014.55 1014.36 1013.93 1013.64 1013.58 1013.54 1013.38 1013.09 1012.76 1012.40 1012.02 1011.52 1010.83 1010.36 1009.91 1009.44 1009.13 1008.83 1008.64 1008.32 1007.95 1007.48 1007.07 1006.74 1006.44 1006.06 1005.74 1005.77 1005.72 1005.69
1016.28 1016.36 1016.41 1016.30 1016.11 1015.84 1015.55 1015.41 1015.23 1015.01 1014.78 1014.53 1014.22 1013.90 1013.64 1013.34 1013.20 1012.76 1012.65 1012.34 1011.82 1011.58 1011.00 1010.46 1010.28 1009.89 1009.26 1008.61 1008.60 1008.30 1007.90 1007.62 1007.41 1007.05 1006.44 1006.02 1005.67 1005.39 1005.17 1004.97 1004.73 1004.66 1004.81
1016.22 1016.19 1016.13 1016.01 1015.71 1015.45 1015.06 1014.77 1014.52 1014.29 1014.14 1014.01 1013.76 1013.37 1013.14 1012.77 1012.69 1012.31 1011.59 1011.37 1010.90 1010.45 1010.12 1009.68 1009.50 1008.72 1008.28 1007.79 1007.62 1007.24 1006.97 1006.63 1006.36 1006.04 1005.59 1005.04 1004.73 1004.45 1004.14 1003.91 1003.76 1003.83 1003.67
Wind_Speed
3 5 5 5 6 4 6 6 6 5 3 2 3 2 2 2 2 2 4 4 4 5 3 1 2 3 4 5 6 6 6 3 4 4 2 2 3 4 4 4 5 6 6
4 4 7 6 6 5 5 6 6 6 5 3 3 3 2 2 3 3 3 3 4 5 4 2 2 3 3 4 5 5 5 3 4 4 2 2 1 2 3 3 5 6 5
4 6 8 6 6 6 7 8 8 8 6 6 3 3 2 2 2 2 2 2 5 4 4 3 3 2 1 3 4 4 5 4 3 5 2 1 2 5 1 2 5 5 5
3 4 6 6 7 6 6 6 7 7 6 5 4 5 4 4 2 2 2 4 4 5 4 4 3 3 2 3 3 2 3 2 3 3 3 1 2 3 3 1 3 6 7
3 5 7 6 7 5 5 6 6 7 7 7 4 5 7 6 5 5 6 5 4 4 4 4 3 3 3 4 5 4 2 2 3 2 3 3 1 1 3 6 5 8 6
4 5 5 4 5 5 5 6 7 7 8 8 7 6 7 7 6 5 5 4 3 3 4 4 3 3 3 4 4 5 4 4 4 4 4 4 3 3 2 4 8 10 7
4 5 7 8 7 7 7 7 8 9 9 9 8 7 7 7 8 7 5 5 3 2 3 3 4 3 4 4 4 4 5 5 4 5 5 4 4 3 2 5 8 8 9
3 4 5 5 5 6 7 8 9 10 9 9 9 7 6 4 5 5 4 4 3 3 4 5 5 5 5 5 4 4 4 5 5 7 7 6 5 4 4 5 5 9 7
4 5 6 5 5 6 7 7 8 8 9 9 8 8 7 6 5 5 4 3 4 3 4 4 5 5 6 6 5 4 5 5 5 6 7 5 5 4 2 2 4 5 7
5 5 5 5 4 5 6 7 7 8 7 8 8 7 8 6 5 4 5 5 5 5 5 5 5 5 5 5 5 5 5 6 5 5 7 6 6 7 5 4 5 5 7
5 6 6 5 5 5 5 7 7 8 8 9 9 9 8 7 5 4 4 5 4 5 5 6 6 6 6 5 6 6 7 7 7 7 7 8 8 6 6 5 4 5 6
6 6 5 5 6 6 6 7 7 7 8 8 8 8 8 8 6 6 5 4 5 5 6 5 6 6 6 6 7 7 7 7 8 8 8 9 6 8 7 6 8 7 7
7 6 5 5 5 5 5 6 6 6 7 7 7 8 8 8 8 7 7 5 5 6 5 5 6 7 7 7 7 7 8 8 9 8 8 9 8 8 7 7 7 7 6
8 6 5 6 5 4 5 5 5 4 5 5 6 7 8 8 8 7 6 6 5 6 6 6 6 7 7 7 8 8 9 9 9 9 9 9 9 10 9 8 8 8 7
6 6 6 6 5 5 5 4 4 4 4 5 6 6 7 7 7 7 7 6 5 5 6 6 6 6 6 6 7 8 8 9 9 9 9 10 11 14 12 7 7 8 8
7 7 8 7 7 6 5 4 4 4 3 4 4 5 6 6 6 6 7 6 6 6 5 5 5 7 5 10 13 12 8 9 9 10 10 10 12 13 17 17 18 14 11
7 7 8 7 6 6 5 5 5 3 3 3 4 4 5 6 6 6 7 7 7 6 7 7 6 7 8 12 14 14 8 8 9 10 10 9 8 11 10 13 17 17 19
7 8 6 7 6 4 4 4 4 3 4 4 4 4 4 5 6 6 6 6 4 6 6 7 7 7 7 14 14 14 9 8 9 10 11 11 12 11 11 11 12 12 12
9 9 7 5 5 6 5 4 4 4 4 5 5 5 4 5 5 5 6 6 4 5 5 6 7 7 8 12 12 10 7 8 10 8 9 10 11 14 18 12 13 13 11
6 8 6 5 5 5 4 4 5 4 5 5 6 5 4 5 6 6 6 3 4 6 6 6 5 8 9 11 12 9 4 7 7 8 8 13 14 19 18 12 11 12 11
7 6 5 6 7 3 4 6 5 6 6 5 5 5 5 5 6 6 3 5 6 6 6 8 8 7 7 10 13 11 6 6 6 7 7 6 13 16 18 18 12 14 11
7 5 6 6 6 4 5 6 6 5 5 5 5 6 6 5 5 6 7 6 6 8 8 7 8 6 8 12 12 13 13 11 6 7 6 8 15 17 18 15 19 21 18
8 5 5 6 5 4 5 5 7 4 5 5 7 7 6 6 6 6 8 6 6 7 8 7 8 8 6 7 14 16 16 14 9 7 11 17 17 19 16 17 20 20 9
6 4 5 5 6 5 4 6 6 6 6 7 7 6 6 8 6 4 5 6 7 8 8 8 9 9 8 8 6 6 6 12 11 11 10 11 15 18 16 13 11 8 10
4 4 5 5 7 6 6 6 6 6 6 6 7 7 6 7 8 7 7 7 9 10 10 10 10 10 10 10 10 10 8 8 10 14 9 8 7 8 8 8 8 8 8
4 4 6 5 7 6 7 7 6 6 7 7 6 7 6 6 6 7 9 14 19 23 23 25 19 13 20 24 22 22 21 23 21 10 9 10 9 9 10 10 9 8 12
Wind_Direction
324 305 320 330 353 8 334 335 322 315 304 281 273 272 300 295 284 281 289 306 315 322 320 323 345 354 16 344 332 328 326 326 341 296 303 51 95 56 54 82 67 72 51
309 319 356 2 355 319 339 331 318 308 291 260 259 266 268 276 280 287 281 279 318 317 307 322 334 351 4 350 350 0 336 323 353 350 304 10 144 24 44 92 54 50 25
324 340 352 341 328 355 358 341 332 324 313 286 278 267 259 264 270 244 276 282 310 304 294 301 297 318 318 329 337 349 355 344 322 344 322 350 11 330 22 96 28 28 11
319 338 328 320 333 345 351 326 343 330 326 317 280 264 270 280 251 279 276 297 298 298 284 287 289 296 299 296 300 341 335 325 323 326 353 302 19 341 316 299 354 352 355
312 316 311 313 317 324 325 323 327 334 339 341 306 283 275 265 274 276 281 278 284 273 278 274 287 286 292 294 296 296 279 289 295 314 325 300 256 281 255 297 309 320 327
321 293 286 308 330 337 324 324 338 328 339 337 327 295 277 282 280 272 273 274 272 290 277 270 262 261 265 274 291 300 278 265 268 284 283 283 323 294 289 286 300 305 307
296 310 337 349 341 338 329 333 339 333 335 334 327 318 292 283 273 274 265 273 279 265 272 270 268 262 262 277 279 283 290 281 258 269 280 291 296 279 270 277 289 294 301
307 311 320 319 327 329 330 337 339 330 327 329 326 322 308 292 285 274 266 255 251 274 292 289 284 279 274 278 283 279 280 285 290 276 274 280 279 270 266 266 285 297 291
309 314 320 317 313 324 327 329 326 322 326 328 328 327 327 313 297 289 259 245 243 248 250 256 272 275 274 274 279 277 281 277 285 290 294 295 290 289 305 310 287 288 298
337 319 302 298 305 319 322 323 328 321 321 324 326 321 316 313 299 281 267 253 259 247 246 243 242 251 253 255 256 267 275 281 282 276 284 267 286 282 283 281 282 279 279
303 286 286 302 318 314 319 324 332 330 333 335 333 330 328 325 306 284 277 264 262 251 254 262 271 268 263 259 259 258 261 256 259 259 265 269 281 281 284 283 275 276 269
277 285 285 298 306 310 323 328 331 334 339 334 335 342 342 341 332 322 312 294 278 278 277 275 269 267 266 271 266 269 270 265 263 265 264 261 262 263 263 264 272 267 258
272 269 265 282 291 296 308 316 321 324 330 339 346 352 354 353 349 338 327 316 302 294 286 271 265 268 266 270 263 259 266 265 262 262 261 264 265 265 263 264 267 265 261
269 258 252 259 269 279 281 293 307 317 320 335 347 353 352 349 345 340 336 324 311 296 290 278 271 267 268 263 260 257 257 257 258 256 253 253 247 249 254 256 261 263 259
266 248 241 255 270 274 273 280 278 300 332 343 349 345 338 341 344 347 340 334 330 316 307 305 302 294 283 274 267 261 260 262 264 259 254 250 246 245 248 252 252 250 257
270 251 245 253 264 264 264 272 285 305 331 328 322 322 332 335 339 342 342 342 339 335 328 320 310 307 297 290 286 282 268 262 265 270 268 259 252 253 256 256 256 250 250
265 261 249 246 257 265 257 263 273 285 293 293 296 312 323 325 330 332 337 341 337 332 329 324 324 313 300 299 299 292 278 261 258 261 266 269 261 253 257 256 258 259 257
275 278 267 258 260 253 237 257 251 268 281 284 283 294 306 311 316 323 327 328 322 332 325 320 320 317 310 317 316 311 296 285 274 265 264 264 267 253 250 258 256 251 248
263 263 264 240 241 248 245 245 262 259 265 271 273 278 287 292 301 306 312 308 296 311 309 309 313 316 308 318 322 323 306 297 290 280 271 266 270 267 263 261 257 257 247
261 281 271 239 250 258 233 240 261 258 264 265 262 271 280 288 297 293 294 270 284 295 304 302 280 296 298 304 312 316 291 291 295 290 270 266 277 281 275 261 256 259 258
285 290 256 249 255 245 204 246 258 256 259 267 270 270 267 265 264 279 251 272 286 294 293 296 295 289 280 292 300 298 282 273 282 282 287 276 274 280 282 279 262 249 262
304 285 248 257 276 231 198 247 258 256 259 267 272 268 260 257 262 263 278 268 271 281 284 287 288 275 266 263 273 281 276 270 267 277 281 284 289 290 286 280 273 272 264
295 289 255 276 272 241 211 242 256 279 266 265 265 272 278 268 260 265 280 288 283 278 283 281 279 278 267 262 267 267 270 269 267 252 261 279 285 289 294 283 275 268 258
298 297 308 294 290 280 255 241 286 277 280 288 289 284 271 285 269 246 248 254 260 266 266 265 265 267 267 265 265 260 268 272 273 272 269 263 268 265 271 278 273 247 256
318 327 312 301 291 310 300 289 274 264 262 256 260 265 264 268 280 268 266 262 256 248 262 257 257 264 268 264 258 274 282 279 269 282 280 275 269 261 255 254 247 238 233
312 318 298 286 283 279 275 271 266 257 255 268 270 266 268 267 265 274 286 271 267 272 267 266 261 268 263 272 277 278 282 285 288 283 277 278 280 283 284 275 271 251 242